Weather History for Dodge City, KS

Change the Weather History Date:

Saturday, March 2, 2013

  Actual Average Record
Temperature  
Mean Temperature 38 °F -  
Max Temperature 55 °F 54 °F 86 °F (1904)
Min Temperature 21 °F 30 °F -10 °F (1922)
Degree Days  
Heating Degree Days 27    
Moisture  
Dew Point 29 °F    
Average Humidity 73    
Maximum Humidity 89    
Minimum Humidity 37    
Precipitation  
Precipitation 0.00 in - - ()
Sea Level Pressure  
Sea Level Pressure 30.26 in    
Wind  
Wind Speed 7 mph (SW)    
Max Wind Speed 12 mph    
Max Gust Speed -    
Visibility 9 miles    
Events      
Averages and records for this station are not official NWS values.
T = Trace of Precipitation, MM = Missing Value Source: NWS Daily Summary

Daily Weather History Graph

Daily Weather History Graph

Search for Another Location

Airport:

Trip Planner

Search our weather history database for the weather conditions in past years. The results will help you decide how hot, cold, wet, or windy it might be!

Date:

Astronomy

Mar. 02, 2013 Rise Set
Actual Time 7:09 AM CST 6:34 PM CST
Civil Twilight 6:43 AM CST 7:01 PM CST
Nautical Twilight 6:12 AM CST 7:31 PM CST
Astronomical Twilight 5:42 AM CST 8:01 PM CST
Moon No Moon Rise 9:45 AM CST (3/2)
Length of Visible Light 12h 17m
Length of Day
11h 25m
Waning Gibbous, 74% of the Moon is Illuminated
Mar 2
Waning Gibbous
Mar 4
Last Quarter
Mar 11
New
Mar 19
First Quarter
Mar 27
Full

Hourly Weather History & Observations

Time (CST) Temp. Windchill Dew Point Humidity Pressure Visibility Wind Dir Wind Speed Gust Speed Precip Events Conditions
12:52 AM 24.1 °F 15.2 °F 19.9 °F 84% 30.39 in 10.0 mi WNW 8.1 mph - N/A   Clear
1:52 AM 26.1 °F 20.5 °F 21.9 °F 84% 30.38 in 10.0 mi WSW 4.6 mph - N/A   Clear
2:52 AM 21.9 °F 15.7 °F 19.0 °F 89% 30.38 in 9.0 mi West 4.6 mph - N/A   Clear
3:52 AM 25.0 °F 17.1 °F 21.9 °F 88% 30.35 in 9.0 mi West 6.9 mph - N/A   Clear
4:52 AM 25.0 °F 17.1 °F 21.9 °F 88% 30.34 in 10.0 mi SW 6.9 mph - N/A   Clear
5:52 AM 23.0 °F 15.8 °F 19.0 °F 85% 30.35 in 9.0 mi SSW 5.8 mph - N/A   Clear
6:52 AM 21.9 °F 13.4 °F 19.0 °F 89% 30.34 in 9.0 mi SSW 6.9 mph - N/A   Clear
7:52 AM 26.1 °F 19.4 °F 21.9 °F 84% 30.34 in 9.0 mi SSW 5.8 mph - N/A   Overcast
8:52 AM 32.0 °F 23.0 °F 27.0 °F 82% 30.33 in 10.0 mi SW 11.5 mph - N/A   Overcast
9:52 AM 34.0 °F 26.6 °F 28.9 °F 82% 30.32 in 9.0 mi WSW 9.2 mph - N/A   Overcast
10:52 AM 39.0 °F 34.0 °F 30.9 °F 73% 30.30 in 10.0 mi WSW 6.9 mph - N/A   Overcast
11:52 AM 44.1 °F 41.5 °F 30.9 °F 60% 30.29 in 10.0 mi West 4.6 mph - N/A   Clear
12:52 PM 48.0 °F - 32.0 °F 54% 30.25 in 10.0 mi WSW 6.9 mph - N/A   Clear
1:52 PM 51.1 °F - 33.1 °F 50% 30.21 in 10.0 mi WSW 6.9 mph - N/A   Clear
2:52 PM 54.0 °F - 35.1 °F 49% 30.20 in 10.0 mi West 6.9 mph - N/A   Clear
3:52 PM 55.9 °F - 36.0 °F 47% 30.16 in 10.0 mi NNW 5.8 mph - N/A   Clear
4:52 PM 54.0 °F - 39.0 °F 57% 30.17 in 10.0 mi NNE 5.8 mph - N/A   Clear
5:52 PM 50.0 °F - 39.0 °F 66% 30.16 in 10.0 mi ESE 6.9 mph - N/A   Clear
6:52 PM 43.0 °F 37.2 °F 37.0 °F 80% 30.18 in 10.0 mi South 10.4 mph - N/A   Clear
7:52 PM 39.9 °F 33.9 °F 35.1 °F 83% 30.18 in 8.0 mi South 9.2 mph - N/A   Clear
8:52 PM 37.0 °F 29.8 °F 33.1 °F 86% 30.16 in 7.0 mi South 10.4 mph - N/A   Clear
9:52 PM 35.1 °F 26.9 °F 30.9 °F 85% 30.15 in 7.0 mi SSW 11.5 mph - N/A   Clear
10:52 PM 35.6 °F 27.5 °F 30.2 °F 81% 30.10 in 6.0 mi SSW 11.5 mph - N/A   Clear